Flag for Finland Weather past 2 weeks in Lappeenranta, Finland

Now
54 °F

Clear.


Feels Like: 53 °F
Forecast: 53 / 65 °F
Wind: 3 mph from Southwest

Location: Lappeenranta

Current Time: Aug 22, 2014 at 1:04:14 AM

Latest Report: Aug 22, 2014 at 12:20 AM


Visibility: 10 mi

Pressure: 29.77 "Hg

Humidity: 88%

Dew point: 50 °F

Location of LappeenrantaLocation

Historic Weather in Lappeenranta — Graph

°F

Lappeenranta temperature yesterday

Maximum temperature yesterday: 64 °F (at 2:50 PM)
Minimum temperature yesterday: 54 °F (at 12:20 AM)
Average temperature yesterday: 58 °F

Past Weeks' High & Low Weather Summary

 TemperatureHumidityPressure
High86 °F (Aug 7, 3:50 PM)100% (Aug 12, 4:20 AM)30.07 "Hg (Aug 12, 4:20 AM)
Low50 °F (Aug 16, 5:50 AM)34% (Aug 8, 5:20 PM)29.53 "Hg (Aug 17, 2:20 AM)
Average64 °F76%29.72 "Hg
* Reported Aug 6 11:20 PM — Aug 21 11:50 PM, Lappeenranta, Weather by CustomWeather, © 2014

Note: Actual official high and low records may vary slightly from our data, if they occured in-between our weather recording intervals... More about our weather records

Advertising

Lappeenranta weather history for previous 24 hours

 ConditionsComfort  
Time TempWeatherWind HumidityBarometerVisibility
11:50 PM
Aug 21
54 °FClear.3 mph88%29.77 "Hg10 mi
11:20 PM54 °FPassing clouds.5 mph88%29.77 "HgN/A
10:50 PM54 °FClear.3 mph88%29.77 "Hg10 mi
10:20 PM55 °FClear.3 mph77%29.77 "Hg10 mi
9:50 PM55 °FClear.3 mph82%29.74 "Hg10 mi
9:20 PM57 °FPassing clouds.6 mph72%29.74 "HgN/A
8:50 PM57 °FPassing clouds.5 mph72%29.77 "HgN/A
8:20 PM59 °FPassing clouds.7 mph68%29.77 "HgN/A
7:50 PM61 °FPassing clouds.7 mph63%29.77 "HgN/A
7:20 PM61 °FPassing clouds.9 mph63%29.74 "HgN/A
6:50 PM63 °FPassing clouds.9 mph59%29.74 "HgN/A
6:20 PM63 °FPassing clouds.9 mph59%29.74 "HgN/A
5:50 PM63 °FPassing clouds.9 mph59%29.74 "HgN/A
5:20 PM63 °FPassing clouds.10 mph64%29.74 "HgN/A
4:50 PM64 °FPassing clouds.13 mph60%29.74 "HgN/A
4:20 PM63 °FPassing clouds.13 mph68%29.74 "HgN/A
3:50 PM63 °FPartly sunny.13 mph68%29.74 "HgN/A
3:20 PM63 °FPassing clouds.14 mph68%29.74 "HgN/A
2:50 PM64 °FPassing clouds.14 mph64%29.71 "HgN/A
2:20 PM63 °FSprinkles. Passing clouds.13 mph77%29.71 "HgN/A
1:50 PM63 °FScattered clouds.12 mph83%29.71 "HgN/A
1:20 PM63 °FBroken clouds.9 mph77%29.71 "HgN/A
12:50 PM59 °FRain showers. Broken clouds.7 mph94%29.71 "HgN/A
12:20 PM59 °FRain showers. Broken clouds.7 mph88%29.68 "Hg6 mi
11:50 AM61 °FBroken clouds.7 mph83%29.68 "HgN/A
11:20 AM59 °FPartly sunny.8 mph82%29.68 "HgN/A
10:50 AM59 °FSprinkles. Broken clouds.8 mph88%29.65 "HgN/A
10:20 AM59 °FBroken clouds.12 mph82%29.65 "HgN/A
9:50 AM59 °FPartly sunny.9 mph82%29.65 "HgN/A
9:20 AM57 °FBroken clouds.10 mph88%29.62 "HgN/A
8:50 AM57 °FPartly sunny.9 mph88%29.62 "HgN/A
8:20 AM57 °FPartly sunny.10 mph88%29.59 "HgN/A
7:50 AM55 °FPartly sunny.9 mph94%29.59 "HgN/A
7:20 AM55 °FBroken clouds.10 mph94%29.59 "HgN/A
6:50 AM55 °FPartly sunny.8 mph94%29.56 "HgN/A
6:20 AM55 °FPartly cloudy.8 mph94%29.56 "HgN/A
5:50 AM55 °FRain showers. Partly cloudy.6 mph94%29.56 "HgN/A
5:20 AM55 °FSprinkles. Partly cloudy.9 mph94%29.56 "HgN/A
4:50 AM55 °FLots of rain. Partly cloudy.7 mph94%29.56 "Hg4 mi
4:20 AM55 °FSprinkles. Partly cloudy.6 mph94%29.56 "HgN/A
3:50 AM54 °FSprinkles. Partly cloudy.6 mph100%29.56 "HgN/A
3:20 AM54 °FRain. Passing clouds.5 mph100%29.56 "HgN/A
2:50 AM54 °FRain. Partly cloudy.2 mph94%29.59 "Hg4 mi
2:20 AM54 °FRain showers. Partly cloudy.6 mph94%29.59 "HgN/A
1:50 AM54 °FRain showers. Partly cloudy.2 mph94%29.59 "HgN/A
1:20 AM54 °FLight rain. Partly cloudy.3 mph94%29.59 "HgN/A
Weather by CustomWeather, © 2014

See weather overviewHow to use our weather pages